Helena, Arkansas, United States (72342)
Lat: 34.53N, Lon: 90.59W
Wx Zone: ARZ058
Local Info
Past Weather Observations for Friday, July 3, 2015

NOTE: This archive is for the closest National Weather Service station to Helena. Information may differ from the station used for current weather conditions.

Click here for Long-term Archive

Time Weather Temperature Dewpoint Humidity Pressure Winds Precip Visibility
23:55
Overcast
Thunder Storms
72°F / 22°C 70°F / 21°C 94% 29.95 in
(1014 mb)
Calm 0.45 in
(11.43 mm)
2SM
23:35
Overcast
Thunder Storms
72°F / 22°C 70°F / 21°C 94% 29.95 in
(1014 mb)
E 4.6 mph
(E 7 kph)
0.10 in
(2.54 mm)
5SM
23:15
Overcast
Thunder Storms
72°F / 22°C 70°F / 21°C 94% 29.95 in
(1014 mb)
E 3.5 mph
(E 6 kph)
0.03 in
(0.76 mm)
7SM
22:55
Overcast
72°F / 22°C 70°F / 21°C 94% 29.95 in
(1014 mb)
Calm 0.05 in
(1.27 mm)
10SM
22:35
Overcast
Heavy Rain
72°F / 22°C 70°F / 21°C 94% 29.95 in
(1014 mb)
Calm 0.05 in
(1.27 mm)
3SM
22:15
Overcast
72°F / 22°C 70°F / 21°C 94% 29.95 in
(1014 mb)
SSE 3.5 mph
(SSE 6 kph)
- 10SM
21:55
Mostly Cloudy
72°F / 22°C 70°F / 21°C 94% 29.98 in
(1015 mb)
Calm - 10SM
21:35
Partly Cloudy
72°F / 22°C 70°F / 21°C 94% 29.95 in
(1014 mb)
S 4.6 mph
(S 7 kph)
- 10SM
21:15
Clear
72°F / 22°C 68°F / 20°C 88% 29.95 in
(1014 mb)
S 3.5 mph
(S 6 kph)
- 10SM
20:55
Partly Cloudy
72°F / 22°C 68°F / 20°C 88% 29.95 in
(1014 mb)
S 5.8 mph
(S 9 kph)
- 10SM
20:35
Clear
72°F / 22°C 68°F / 20°C 88% 29.95 in
(1014 mb)
SW 5.8 mph
(SW 9 kph)
- 10SM
20:15
Clear
72°F / 22°C 70°F / 21°C 94% 29.92 in
(1013 mb)
SW 8.1 mph
(SW 13 kph)
- 10SM
19:55
Clear
72°F / 22°C 70°F / 21°C 94% 29.89 in
(1012 mb)
SW 8.1 mph
(SW 13 kph)
- 10SM
19:35
Clear
72°F / 22°C 70°F / 21°C 94% 29.92 in
(1013 mb)
SW 10.4 mph
(SW 17 kph)
- 10SM
19:15
Partly Cloudy
72°F / 22°C 70°F / 21°C 94% 29.92 in
(1013 mb)
SW 9.2 mph
(SW 15 kph)
- 10SM
18:55
Mostly Cloudy
73°F / 23°C 70°F / 21°C 89% 29.92 in
(1013 mb)
SW 9.2 mph
(SW 15 kph)
- 10SM
18:35
Partly Cloudy
73°F / 23°C 70°F / 21°C 89% 29.92 in
(1013 mb)
SSE 12.7 mph
(SSE 20 kph)
- 10SM
18:15
Partly Cloudy
73°F / 23°C 72°F / 22°C 94% 29.92 in
(1013 mb)
S 9.2 mph
(S 15 kph)
- 10SM
17:55
Mostly Cloudy
Drizzle
73°F / 23°C 72°F / 22°C 94% 29.92 in
(1013 mb)
SW 9.2 mph
(SW 15 kph)
0.76 in
(19.30 mm)
7SM
17:35
Overcast
Light Rain
73°F / 23°C 72°F / 22°C 94% 29.95 in
(1014 mb)
SW 15 mph
(SW 24 kph)
0.75 in
(19.05 mm)
4SM
17:15
Overcast
Heavy Rain
75°F / 24°C 73°F / 23°C 94% 29.92 in
(1013 mb)
SSW 5.8 mph
(SSW 9 kph)
0.32 in
(8.13 mm)
1SM
16:55
Mostly Cloudy
77°F / 25°C 73°F / 23°C 89% 29.92 in
(1013 mb)
SSE 4.6 mph
(SSE 7 kph)
- 7SM
16:35
Mostly Cloudy
77°F / 25°C 72°F / 22°C 83% 29.95 in
(1014 mb)
S 9.2 mph
(S 15 kph)
- 7SM
16:15
Mostly Cloudy
77°F / 25°C 72°F / 22°C 83% 29.95 in
(1014 mb)
SW 9.2 mph
(SW 15 kph)
- 10SM
15:55
Mostly Cloudy
77°F / 25°C 72°F / 22°C 83% 29.95 in
(1014 mb)
SW 10.4 mph
(SW 17 kph)
- 10SM
15:35
Mostly Cloudy
79°F / 26°C 72°F / 22°C 79% 29.95 in
(1014 mb)
SW 12.7 mph
(SW 20 kph)
- 10SM
15:15
Mostly Cloudy
77°F / 25°C 72°F / 22°C 83% 29.95 in
(1014 mb)
SW 11.5 mph
(SW 19 kph)
- 10SM
14:55
Mostly Cloudy
77°F / 25°C 72°F / 22°C 83% 29.95 in
(1014 mb)
SW 9.2 mph
(SW 15 kph)
- 10SM
14:35
Partly Cloudy
75°F / 24°C 72°F / 22°C 89% 29.95 in
(1014 mb)
SW 6.9 mph
(SW 11 kph)
- 10SM
14:15
Partly Cloudy
73°F / 23°C 72°F / 22°C 94% 29.95 in
(1014 mb)
SW 6.9 mph
(SW 11 kph)
- 10SM
13:55
Mostly Cloudy
Drizzle
73°F / 23°C 72°F / 22°C 94% 29.98 in
(1015 mb)
SW 5.8 mph
(SW 9 kph)
0.03 in
(0.76 mm)
10SM
13:35
Overcast
Rain
73°F / 23°C 70°F / 21°C 89% 29.98 in
(1015 mb)
SSW 6.9 mph
(SSW 11 kph)
0.03 in
(0.76 mm)
7SM
13:15
Overcast
Rain
73°F / 23°C 72°F / 22°C 94% 29.98 in
(1015 mb)
W 8.1 mph
(W 13 kph)
0.02 in
(0.51 mm)
7SM
12:55
Overcast
Rain
73°F / 23°C 70°F / 21°C 89% 30.01 in
(1016 mb)
SSW 11.5 mph
(SSW 19 kph)
0.14 in
(3.56 mm)
5SM
12:35
Overcast
Rain
73°F / 23°C 72°F / 22°C 94% 30.01 in
(1016 mb)
SSW 10.4 mph
(SSW 17 kph)
0.06 in
(1.52 mm)
5SM
12:15
Overcast
Light Rain
73°F / 23°C 72°F / 22°C 94% 30.01 in
(1016 mb)
SSW 8.1 mph
(SSW 13 kph)
0.02 in
(0.51 mm)
5SM
11:55
Overcast
Rain
73°F / 23°C 70°F / 21°C 89% 30.01 in
(1016 mb)
SSW 8.1 mph
(SSW 13 kph)
0.06 in
(1.52 mm)
5SM
11:35
Overcast
Rain
73°F / 23°C 70°F / 21°C 89% 30.01 in
(1016 mb)
SSW 9.2 mph
(SSW 15 kph)
0.01 in
(0.25 mm)
7SM
11:15
Overcast
Light Rain
73°F / 23°C 70°F / 21°C 89% 30.01 in
(1016 mb)
SSW 11.5 mph
(SSW 19 kph)
- 10SM
10:55
Partly Cloudy
75°F / 24°C 72°F / 22°C 89% 30.01 in
(1016 mb)
SSW 11.5 mph
(SSW 19 kph)
- 10SM
10:35
Clear
75°F / 24°C 72°F / 22°C 89% 29.98 in
(1015 mb)
SSW 13.8 mph
(SSW 22 kph)
- 10SM
10:15
Clear
Thunder Storms
75°F / 24°C 72°F / 22°C 89% 29.98 in
(1015 mb)
SSW 13.8 mph
(SSW 22 kph)
- 10SM
09:55
Mostly Cloudy
73°F / 23°C 70°F / 21°C 89% 29.95 in
(1014 mb)
SW 15 mph
(SW 24 kph)
0.15 in
(3.81 mm)
10SM
09:35
Overcast
Thunder Storms
72°F / 22°C 68°F / 20°C 88% 29.95 in
(1014 mb)
SW 11.5 mph
(SW 19 kph)
0.14 in
(3.56 mm)
4SM
09:15
Overcast
Rain
73°F / 23°C 68°F / 20°C 83% 29.98 in
(1015 mb)
SW 11.5 mph
(SW 19 kph)
0.09 in
(2.29 mm)
2 1/2SM
08:55
Mostly Cloudy
Thunder Storms
77°F / 25°C 72°F / 22°C 83% 29.98 in
(1015 mb)
SW 5.8 mph
(SW 9 kph)
- 4SM
08:35
Partly Cloudy
77°F / 25°C 72°F / 22°C 83% 29.95 in
(1014 mb)
SW 4.6 mph
(SW 7 kph)
- 10SM
08:15
Partly Cloudy
Thunder Storms
77°F / 25°C 72°F / 22°C 83% 29.98 in
(1015 mb)
Calm - 10SM
07:55
Mostly Cloudy
Light Rain
77°F / 25°C 72°F / 22°C 83% 29.98 in
(1015 mb)
SW 3.5 mph
(SW 6 kph)
- 10SM
07:35
Mostly Cloudy
Thunder Storms
77°F / 25°C 72°F / 22°C 83% 29.98 in
(1015 mb)
SSW 3.5 mph
(SSW 6 kph)
- 10SM
07:15
Partly Cloudy
Thunder Storms
77°F / 25°C 72°F / 22°C 83% 29.95 in
(1014 mb)
SSW 6.9 mph
(SSW 11 kph)
- 5SM
06:55
Partly Cloudy
Thunder Storms
75°F / 24°C 72°F / 22°C 89% 29.95 in
(1014 mb)
SSW 10.4 mph
(SSW 17 kph)
- 10SM
06:35
Partly Cloudy
Thunder Storms
75°F / 24°C 72°F / 22°C 89% 29.95 in
(1014 mb)
SW 10.4 mph
(SW 17 kph)
- 10SM
06:15
Mostly Cloudy
Thunder Storms
77°F / 25°C 72°F / 22°C 83% 29.92 in
(1013 mb)
SW 9.2 mph
(SW 15 kph)
- 7SM
05:55
Mostly Cloudy
Thunder Storms
77°F / 25°C 72°F / 22°C 83% 29.95 in
(1014 mb)
SSW 8.1 mph
(SSW 13 kph)
- 7SM
05:35
Mostly Cloudy
Thunder Storms
77°F / 25°C 72°F / 22°C 83% 29.92 in
(1013 mb)
SW 10.4 mph
(SW 17 kph)
- 7SM
05:15
Mostly Cloudy
Thunder Storms
75°F / 24°C 72°F / 22°C 89% 29.92 in
(1013 mb)
SW 10.4 mph
(SW 17 kph)
- 7SM
04:55
Mostly Cloudy
Thunder Storms
75°F / 24°C 72°F / 22°C 89% 29.92 in
(1013 mb)
SW 10.4 mph
(SW 17 kph)
0.03 in
(0.76 mm)
10SM
04:35
Partly Cloudy
Thunder Storms
77°F / 25°C 70°F / 21°C 79% 29.92 in
(1013 mb)
SSW 9.2 mph
(SSW 15 kph)
- 10SM
04:15
Partly Cloudy
79°F / 26°C 72°F / 22°C 79% 29.92 in
(1013 mb)
SSW 9.2 mph
(SSW 15 kph)
- 10SM
03:55
Partly Cloudy
79°F / 26°C 72°F / 22°C 79% 29.92 in
(1013 mb)
SSW 6.9 mph
(SSW 11 kph)
- 10SM
03:35
Partly Cloudy
79°F / 26°C 72°F / 22°C 79% 29.92 in
(1013 mb)
SSW 8.1 mph
(SSW 13 kph)
- 10SM
03:15
Partly Cloudy
79°F / 26°C 72°F / 22°C 79% 29.89 in
(1012 mb)
SSW 11.5 mph
(SSW 19 kph)
- 10SM
02:55
Partly Cloudy
79°F / 26°C 72°F / 22°C 79% 29.89 in
(1012 mb)
SW 9.2 mph
(SW 15 kph)
- 10SM
02:35
Partly Cloudy
Thunder Storms
79°F / 26°C 72°F / 22°C 79% 29.89 in
(1012 mb)
SSW 6.9 mph
(SSW 11 kph)
- 10SM
02:15
Partly Cloudy
79°F / 26°C 72°F / 22°C 79% 29.89 in
(1012 mb)
SSW 5.8 mph
(SSW 9 kph)
- 10SM
01:55
Mostly Cloudy
79°F / 26°C 72°F / 22°C 79% 29.89 in
(1012 mb)
SSW 5.8 mph
(SSW 9 kph)
- 10SM
01:35
Mostly Cloudy
77°F / 25°C 72°F / 22°C 83% 29.89 in
(1012 mb)
SSW 3.5 mph
(SSW 6 kph)
- 10SM
01:15
Partly Cloudy
79°F / 26°C 72°F / 22°C 79% 29.89 in
(1012 mb)
SW 3.5 mph
(SW 6 kph)
- 10SM
00:55
Partly Cloudy
79°F / 26°C 72°F / 22°C 79% 29.89 in
(1012 mb)
SSW 3.5 mph
(SSW 6 kph)
- 10SM
00:35
Partly Cloudy
79°F / 26°C 72°F / 22°C 79% 29.92 in
(1013 mb)
SSW 4.6 mph
(SSW 7 kph)
- 10SM
00:15
Mostly Cloudy
79°F / 26°C 72°F / 22°C 79% 29.92 in
(1013 mb)
SSW 5.8 mph
(SSW 9 kph)
- 10SM
Time Weather Temperature Dewpoint Humidity Pressure Winds Precip Visibility


Weather for websites

WeatherForYou.com, LLC is not responsible for any damages or problems caused by this service. Current weather conditions are obtained from the closest station including government and personal stations which may have varying degrees of accuracy. Weather forecasts are derived from the NOAA NDFD. Like all things, this site belongs to Jesus Christ... He just trusts us to maintain it. If you have any questions or comments email webmaster@weatherforyou.com

Copyright © 2015, WeatherForYou.com LLC. All rights reserved.